Location: Dominion City
(49.1330°N, 97.1500°W)
Time: 11:12:03
(UTC-05:00)

Daily predictions for brighter satellites

Satellite Brightness Start Highest point End
(mag) Time Altitude Azimuth Time Altitude Azimuth Time Altitude Azimuth
Cosmos 1825 Rocket 4.3 22:14:02 10° SSW 22:18:26 57° WNW 22:22:52 10° N
SL-8 R/B 4.1 22:15:47 10° SW 22:20:20 42° SSE 22:24:54 10° E
Iridium 81 4.3 22:17:57 10° SSE 22:20:28 45° E 22:23:28 10° NNE
Cosmos 1315 Rocket 3.6 22:17:53 10° SSW 22:21:55 58° WNW 22:26:00 10° N
Cosmos 1461 4.4 22:19:18 10° SSE 22:22:49 22° ESE 22:26:25 10° ENE
CZ-2C R/B 4.4 22:20:25 10° ESE 22:25:29 32° ENE 22:30:27 10° N
ARGOS 3.6 22:20:08 10° S 22:25:32 66° WSW 22:30:57 10° NNW
Cosmos 2278 Rocket 3.2 22:21:22 10° SSE 22:26:05 28° ESE 22:30:50 10° NE
APEX 2.8 22:28:25 10° NNW 22:31:26 77° ENE 22:35:03 10° SSE
Cosmos 1745 Rocket 4.1 22:30:54 10° N 22:37:15 71° ENE 22:43:29 10° SSE
IGS 5A 4.2 22:33:26 10° SE 22:37:18 39° ENE 22:41:11 10° N
Cosmos 220 Rocket 4.4 22:33:21 10° S 22:37:20 42° ESE 22:41:20 10° NE
COSMOS 2406 3.6 22:34:37 10° NNW 22:40:21 65° WSW 22:46:01 10° SSE
Cosmos 1844 Rocket 2.8 22:36:45 10° SSW 22:42:26 84° WNW 22:48:08 10° NNE
KORONAS-FOTON 3.8 22:42:13 10° S 22:46:07 87° E 22:50:04 10° N
CARTOSAT-1 4.0 22:43:53 11° SE 22:47:53 49° ENE 22:52:06 10° N
SL-14 R/B 3.8 22:44:57 10° SSE 22:48:36 41° E 22:52:20 10° NNE
Cosmos 1346 Rocket 4.5 22:45:19 10° NNW 22:48:52 31° W 22:52:27 10° SSW
Cosmos 1844 3.8 22:43:17 10° SSW 22:49:00 87° ESE 22:54:50 10° NNE
Cosmos 1238 Rocket 4.2 22:46:48 10° SW 22:49:26 28° WNW 22:52:18 10° N
SPOT 5 3.1 22:45:53 10° SSE 22:51:02 89° ENE 22:56:24 10° NNW
ATLAS 3B R/B 3.0 22:47:28 10° NW 22:54:00 59° WSW 23:00:07 11° SSE
SL-27 R/B 4.0 22:54:13 10° N 22:57:21 26° ENE 23:00:13 11° ESE
Lacrosse 5 2.4 22:52:23 10° WSW 22:57:26 66° NNW 23:02:30 10° NE
ATLAS 5 CENTAUR R/B 2.8 22:55:48 10° S 22:59:27 25° ESE 23:03:23 10° ENE
SPOT 1/Viking Rocket 3.7 23:00:48 10° S 23:05:56 73° WSW 23:11:07 10° NNW
Cosmos 494 Rocket 4.4 23:00:52 10° SSW 23:06:05 67° WNW 23:11:23 10° NNE
H-2A R/B 3.4 23:01:17 10° SSW 23:06:12 37° W 23:11:14 10° NNW
BREEZE-M DEB (TANK) 2.7 22:59:29 10° WSW 23:06:13 62° SSE 23:08:52 10° E
Helios 1B rocket 2.7 23:02:20 10° NNE 23:06:22 52° E 23:10:02 12° S
Cosmos 1626 2.9 23:06:16 16° SSE 23:08:48 35° E 23:12:13 10° NNE
S3M 4.2 23:02:35 10° S 23:08:58 83° W 23:15:26 10° N
Helios 1A 3.3 23:05:04 11° S 23:09:05 63° WSW 23:13:18 10° NNW
NOSS 3-2 (A) 4.3 23:02:34 10° NW 23:09:54 60° WSW 23:17:06 13° SSE
Cosmos 2082 Rocket 2.6 23:04:20 10° NNW 23:10:01 58° ENE 23:14:50 14° SE
NOSS 2-2 (C) 4.4 23:07:58 14° SSE 23:10:26 25° ESE 23:14:02 10° ENE
Cosmos 1709 Rocket 4.1 23:04:17 10° N 23:10:31 65° ENE 23:15:45 14° SSE
Cosmos 1833 Rocket 2.9 23:05:01 10° NNW 23:10:38 65° ENE 23:15:19 15° SE
Cosmos 1842 Rocket 4.1 23:07:45 10° NNW 23:12:00 54° W 23:16:16 10° S
Cosmos 1340 3.9 23:09:58 10° NNW 23:13:30 37° W 23:17:00 10° SSW
CZ-2C R/B 3.4 23:12:26 10° NNE 23:17:26 36° E 23:21:05 16° SSE
YAOGAN 11 4.4 23:14:27 16° SSE 23:18:01 63° ENE 23:22:31 10° N
BREEZE-M R/B 4.2 23:11:33 10° WNW 23:18:38 80° SSW 23:24:41 10° ESE
Iridium 67 2.9 23:20:50 10° N 23:22:20 44° E 23:22:20 44° E
Landsat 7 4.3 23:21:20 12° S 23:25:39 56° W 23:30:22 10° NNW
Spot 1 4.3 23:24:21 16° S 23:27:51 77° WSW 23:32:35 10° NNW
ATLAS 2AS CENTAUR R/B 3.6 23:21:24 10° WSW 23:29:20 64° NW 23:37:25 10° NE
Aureole 3 Rocket 4.1 23:24:36 13° S 23:31:01 58° E 23:36:10 10° NNE
Cosmos 1455 3.0 23:28:18 10° N 23:31:53 39° ENE 23:34:03 20° SE
Cosmos 1300 3.6 23:29:40 10° NNW 23:33:19 44° W 23:36:28 13° SSW
NOSS 3-2 (C) 4.4 23:28:30 10° NW 23:35:48 57° WSW 23:42:13 17° SSE
Cosmos 2221 3.2 23:37:27 10° NNW 23:41:39 50° W 23:45:02 15° SSW
RESURS DK-1 3.0 23:41:55 22° SSE 23:43:59 37° ESE 23:47:49 10° NE
Iridium 75 3.7 23:43:00 10° NNW 23:44:51 51° W 23:44:58 49° WSW
Terra 2.3 23:41:23 16° S 23:45:05 55° W 23:49:48 10° NNW
Cosmos 1992 Rocket 4.0 23:40:01 10° NNW 23:45:16 79° WSW 23:48:50 21° SSE
Cosmos 2251 Rocket 4.1 23:40:28 10° SW 23:45:45 61° WNW 23:51:02 10° NNE
Meteor 1-29 3.1 23:43:27 10° N 23:46:51 69° WNW 23:49:26 16° SSW
Okean 3 Rocket 3.5 23:44:14 18° S 23:47:24 79° E 23:51:48 10° NNE
COBE Rocket 4.3 23:47:28 10° NNE 23:52:25 50° E 23:55:35 22° SSE
Cosmos 2315 Rocket 4.1 23:47:00 13° S 23:52:42 89° W 23:59:07 10° N
Cosmos 1328 Rocket 4.0 23:51:12 10° N 23:55:27 49° ENE 23:57:52 23° SE
